Location: Champaign/Urbana Astronomical Society Observatory
(40.0333°N, 88.2833°W)
Time: 21:14:03
(UTC-06:00)

LilacSat-2 - Visible Passes

Search period start: 14 November 2019 00:00
Search period end: 24 November 2019 00:00
Orbit: 512 x 536 km, 97.5° (Epoch: 14 November)

Date Brightness Start Highest point End Pass type
(mag) Time Alt. Az. Time Alt. Az. Time Alt. Az.
14 Nov ? 04:56:56 10° NE 04:59:48 20° E 05:02:40 10° SE visible
14 Nov ? 17:10:51 10° S 17:14:31 58° W 17:18:14 10° NNW visible
15 Nov ? 04:45:23 10° ENE 04:47:33 15° E 04:49:42 10° SE visible
16 Nov ? 04:34:44 10° E 04:35:15 10° E 04:35:45 10° E visible
16 Nov ? 06:06:03 10° N 06:09:45 51° WNW 06:13:28 10° SSW visible
17 Nov ? 05:53:47 10° N 05:57:36 74° WNW 06:01:25 10° SSW visible
17 Nov ? 18:11:21 10° WSW 18:12:29 11° W 18:13:37 10° WNW visible
18 Nov ? 05:41:36 10° NNE 05:45:26 76° ESE 05:49:15 10° S visible
18 Nov ? 17:57:53 10° SW 18:00:12 16° W 18:02:32 10° NW visible
19 Nov ? 05:29:30 10° NNE 05:33:15 52° E 05:36:59 10° S visible
19 Nov ? 17:45:00 10° SSW 17:47:56 22° W 17:50:53 10° NW visible
20 Nov ? 05:17:28 10° NNE 05:21:01 36° E 05:24:35 10° SSE visible
20 Nov ? 17:32:21 10° SSW 17:35:41 30° W 17:39:03 10° NNW visible
21 Nov ? 05:05:33 10° NE 05:08:47 26° E 05:12:02 10° SSE visible
21 Nov ? 17:19:53 10° S 17:23:27 44° W 17:27:03 10° NNW visible
22 Nov ? 04:53:47 10° NE 04:56:32 19° E 04:59:17 10° SE visible
22 Nov ? 17:07:32 10° S 17:11:15 65° W 17:14:59 10° NNW visible
23 Nov ? 04:42:18 10° ENE 04:44:16 13° E 04:46:13 10° ESE visible
23 Nov ? 06:15:03 10° N 06:18:39 39° WNW 06:22:14 10° SW visible
